FW4110 Weather Reports


time (UTC)temp
F
wind
direction
speed
knots
gust
knots
rain 1hr
in
rain 24hr
in
rain mn
in
humidity
%
barometer
mb
20260504001516 76 204 1.7 5.2 0.00 0.00 0.00 59 1011.0
20260504000010 77 273 1.7 5.2 0.00 0.00 0.00 58 1011.1
20260503234510 77 223 2.6 7.0 0.00 0.00 0.00 58 1011.2
20260503233005 77 287 0.9 7.8 0.00 0.00 0.00 57 1011.3
20260503231504 77 260 3.5 9.6 0.00 0.00 0.00 56 1011.5
20260503224556 78 239 2.6 10.4 0.00 0.00 0.00 54 1011.9
20260503223052 78 277 2.6 12.2 0.00 0.00 0.00 54 1012.0
20260503221553 79 229 2.6 10.4 0.00 0.00 0.00 52 1012.0
20260503220049 79 234 3.5 11.3 0.00 0.00 0.00 51 1012.1
20260503214551 79 242 1.7 13.0 0.00 0.00 0.00 52 1012.1
20260503213045 78 220 3.5 10.4 0.00 0.00 0.00 51 1012.2
20260503211540 78 246 6.1 16.5 0.00 0.00 0.00 50 1012.2
20260503210035 77 218 4.3 13.9 0.00 0.00 0.00 50 1012.6
20260503204533 77 320 5.2 14.8 0.00 0.00 0.00 50 1012.7
20260503203026 77 310 5.2 14.8 0.00 0.00 0.00 50 1012.8
20260503201522 77 163 3.5 13.0 0.00 0.00 0.00 51 1013.3
20260503200018 76 287 5.2 14.8 0.00 0.00 0.00 51 1013.7
20260503194515 76 309 4.3 17.4 0.00 0.00 0.00 52 1014.2
20260503193011 75 174 3.5 9.6 0.00 0.00 0.00 52 1014.6
20260503191505 74 263 6.1 13.9 0.00 0.00 0.00 54 1015.1
20260503190001 74 247 3.5 12.2 0.00 0.00 0.00 53 1015.5
20260503184556 73 283 3.5 13.0 0.00 0.00 0.00 53 1016.1
20260503183059 72 161 6.1 13.9 0.00 0.00 0.00 55 1016.3
20260503181545 71 265 4.3 9.6 0.00 0.00 0.00 56 1016.7
20260503180052 71 264 3.5 12.2 0.00 0.00 0.00 55 1017.1
20260503174535 70 309 1.7 10.4 0.00 0.00 0.00 56 1017.6
20260503173031 69 204 5.2 13.0 0.00 0.00 0.00 56 1018.4
20260503171535 68 335 3.5 13.0 0.00 0.00 0.00 57 1018.6
20260503081551 41 180 0.0 0.0 0.00 0.00 0.00 83 1021.5
20260503071547 44 184 0.0 0.9 0.00 0.00 0.00 81 1021.5
20260503054525 42 32 0.0 0.0 0.00 0.00 0.00 83 1022.1
20260503053015 43 32 0.0 0.0 0.00 0.00 0.00 82 1022.2
20260503051512 44 32 0.0 0.0 0.00 0.00 0.00 81 1022.2
20260503050013 44 32 0.0 0.0 0.00 0.00 0.00 81 1022.1
20260503044508 43 32 0.0 0.0 0.00 0.00 0.00 84 1022.0
20260503043005 43 32 0.0 0.0 0.00 0.00 0.00 87 1022.0
20260503041503 44 32 0.0 0.0 0.00 0.00 0.00 87 1021.9
20260503034559 46 32 0.0 0.0 0.00 0.00 0.00 86 1021.9
20260503033101 46 32 0.0 0.0 0.00 0.00 0.00 86 1021.9
20260503031556 46 32 0.0 0.0 0.00 0.00 0.00 82 1021.9
20260503030054 46 32 0.0 0.0 0.00 0.00 0.00 85 1021.8
20260503024600 47 32 0.0 0.0 0.00 0.00 0.00 84 1021.7
20260503023050 47 32 0.0 0.0 0.00 0.00 0.00 82 1021.8
20260503021556 47 32 0.0 0.0 0.00 0.00 0.00 82 1021.7
20260503020054 48 32 0.0 0.0 0.00 0.00 0.00 82 1021.7
20260503014617 48 32 0.0 0.0 0.00 0.00 0.00 82 1021.6
20260503013044 49 32 0.0 0.0 0.00 0.00 0.00 81 1021.4
20260503011548 51 32 0.0 0.0 0.00 0.00 0.00 79 1021.3
20260503010049 52 32 0.0 0.0 0.00 0.00 0.00 78 1021.2
20260503004541 55 32 0.0 0.0 0.00 0.00 0.00 75 1021.2
20260503003034 58 32 0.0 0.0 0.00 0.00 0.00 70 1021.2